FW7886 Weather Reports


Display with metric or nautical units.
time (UTC)temp
F
wind
direction
speed
MPH
gust
MPH
rain 1hr
in
rain 24hr
in
rain mn
in
humidity
%
barometer
mb
20260831135647 84 149 1.0 6.0 0.00 0.01 0.00 90 1016.3
20260831135148 85 272 1.0 5.0 0.00 0.01 0.00 89 1016.3
20260831134648 85 278 1.0 4.0 0.00 0.01 0.00 90 1016.2
20260831134146 84 201 1.0 4.0 0.00 0.01 0.00 91 1016.0
20260831133910 84 308 1.0 4.0 0.00 0.01 0.00 90 1015.9
20260831133146 83 183 0.0 3.0 0.00 0.01 0.00 92 1016.0
20260831132648 83 217 0.0 3.0 0.00 0.01 0.00 92 1015.8
20260831132148 82 105 0.0 3.0 0.00 0.01 0.00 94 1015.7
20260831131644 82 165 0.0 5.0 0.00 0.01 0.00 95 1015.8
20260831131143 81 191 0.0 5.0 0.00 0.01 0.00 96 1015.7
20260831130642 80 144 0.0 3.0 0.00 0.01 0.00 97 1015.7
20260831130143 80 153 0.0 3.0 0.00 0.01 0.00 99 1015.9
20260831125644 79 149 0.0 3.0 0.00 0.01 0.00 99 1015.9
20260831125144 79 156 0.0 1.0 0.00 0.01 0.00 100 1015.8
20260831124905 78 154 0.0 3.0 0.00 0.01 0.00 100 1016.0
20260831124402 78 161 0.0 3.0 0.00 0.01 0.00 100 1015.9
20260831123645 78 146 0.0 0.0 0.00 0.01 0.00 100 1015.8
20260831123143 77 146 0.0 0.0 0.00 0.01 0.00 100 1015.7
20260831122644 77 146 0.0 0.0 0.00 0.01 0.00 100 1015.7
20260831122142 77 144 0.0 1.0 0.00 0.01 0.00 100 1015.7
20260831121643 77 144 0.0 1.0 0.00 0.01 0.00 100 1015.6
20260831121143 77 144 0.0 1.0 0.00 0.01 0.00 100 1015.5
20260831120643 76 144 0.0 0.0 0.00 0.01 0.00 100 1015.5
20260831120409 76 144 0.0 0.0 0.00 0.01 0.00 100 1015.4
20260831115642 76 144 0.0 0.0 0.00 0.01 0.00 100 1015.4
20260831115143 76 144 0.0 0.0 0.00 0.01 0.00 100 1015.4
20260831114644 76 118 0.0 1.0 0.00 0.01 0.00 100 1015.3
20260831114402 76 161 0.0 1.0 0.00 0.01 0.00 100 1015.3
20260831113644 76 161 0.0 0.0 0.00 0.01 0.00 100 1015.3
20260831113146 76 162 0.0 0.0 0.00 0.01 0.00 100 1015.2
20260831112644 76 162 0.0 0.0 0.00 0.01 0.00 100 1015.1
20260831112143 76 162 0.0 0.0 0.00 0.01 0.00 100 1015.0
20260831111644 76 161 0.0 0.0 0.00 0.01 0.00 100 1015.2
20260831111142 76 161 0.0 0.0 0.00 0.01 0.00 100 1015.1
20260831110640 76 161 0.0 0.0 0.00 0.01 0.00 100 1014.9
20260831110138 76 162 0.0 0.0 0.00 0.01 0.00 100 1015.0
20260831105639 76 162 0.0 0.0 0.00 0.01 0.00 100 1015.0
20260831105138 76 161 0.0 0.0 0.00 0.01 0.00 100 1014.8
20260831104637 76 162 0.0 0.0 0.00 0.01 0.00 100 1014.8
20260831104137 76 162 0.0 0.0 0.00 0.01 0.00 100 1014.7
20260831103640 76 162 0.0 0.0 0.00 0.01 0.00 100 1014.7
20260831103134 76 161 0.0 0.0 0.00 0.01 0.00 100 1014.8
20260831102629 77 161 0.0 0.0 0.00 0.01 0.00 100 1014.8
20260831102342 77 162 0.0 0.0 0.00 0.01 0.00 100 1014.6
20260831101841 76 162 0.0 0.0 0.00 0.01 0.00 100 1014.6
20260831101110 76 161 0.0 0.0 0.00 0.01 0.00 100 1014.6
20260831100604 76 162 0.0 0.0 0.00 0.01 0.00 100 1014.6
20260831100058 76 162 0.0 0.0 0.00 0.01 0.00 100 1014.5
20260831095552 76 162 0.0 1.0 0.00 0.01 0.00 100 1014.5
20260831095046 76 161 0.0 1.0 0.00 0.01 0.00 100 1014.4
20260831094540 76 166 0.0 0.0 0.00 0.01 0.00 100 1014.7
20260831094034 76 166 0.0 0.0 0.00 0.01 0.00 100 1014.6
20260831093528 76 166 0.0 0.0 0.00 0.01 0.00 100 1014.5
20260831093249 76 166 0.0 0.0 0.00 0.01 0.00 100 1014.5
20260831092515 76 166 0.0 0.0 0.00 0.01 0.00 100 1014.5
20260831092010 76 166 0.0 0.0 0.00 0.01 0.00 100 1014.5
20260831091504 76 175 0.0 0.0 0.00 0.01 0.00 100 1014.7
20260831091000 76 175 0.0 0.0 0.00 0.01 0.00 100 1014.7
20260831090451 76 172 0.0 0.0 0.00 0.01 0.00 100 1014.5
20260831085946 76 172 0.0 3.0 0.00 0.01 0.00 100 1014.6
20260831085440 76 245 0.0 3.0 0.00 0.01 0.00 100 1014.5
20260831084933 76 165 0.0 1.0 0.00 0.01 0.00 100 1014.5
20260831084428 76 165 0.0 0.0 0.00 0.01 0.00 100 1014.4
20260831084405 76 165 0.0 0.0 0.00 0.01 0.00 100 1014.4
20260831083416 76 165 0.0 0.0 0.00 0.01 0.00 100 1014.3
20260831082910 76 165 0.0 0.0 0.00 0.01 0.00 100 1014.2
20260831082404 76 165 0.0 0.0 0.00 0.01 0.00 100 1014.2
20260831082350 76 165 0.0 0.0 0.00 0.01 0.00 100 1014.1
20260831081352 76 165 0.0 0.0 0.00 0.01 0.00 100 1014.3
20260831080847 76 165 0.0 0.0 0.00 0.01 0.00 100 1014.5
20260831080341 76 165 0.0 0.0 0.00 0.01 0.00 100 1014.5
20260831075834 76 165 0.0 0.0 0.00 0.01 0.00 100 1014.5
20260831075549 76 165 0.0 0.0 0.00 0.01 0.00 100 1014.6
20260831074822 76 165 0.0 0.0 0.00 0.01 0.00 100 1014.5
20260831074316 76 165 0.0 0.0 0.00 0.01 0.00 100 1014.4
20260831073810 77 165 0.0 0.0 0.00 0.01 0.00 100 1014.4
20260831073535 77 165 0.0 0.0 0.00 0.01 0.00 100 1014.5
20260831072758 77 165 0.0 0.0 0.00 0.01 0.00 100 1014.5
20260831072252 77 165 0.0 0.0 0.00 0.01 0.00 100 1014.5
20260831071746 77 165 0.0 0.0 0.00 0.01 0.00 100 1014.5
20260831071240 77 165 0.0 0.0 0.00 0.01 0.00 100 1014.5
20260831070734 77 165 0.0 0.0 0.00 0.01 0.00 100 1014.6
20260831070450 77 165 0.0 0.0 0.00 0.01 0.00 100 1014.9
20260831065721 77 165 0.0 0.0 0.00 0.01 0.00 100 1015.0
20260831065447 77 165 0.0 0.0 0.00 0.01 0.00 100 1014.9
20260831064710 77 165 0.0 0.0 0.00 0.01 0.00 100 1015.0
20260831064204 77 165 0.0 0.0 0.00 0.01 0.00 100 1014.9
20260831063657 77 165 0.0 0.0 0.00 0.01 0.00 100 1015.0
20260831063151 77 165 0.0 0.0 0.00 0.01 0.00 100 1015.0
20260831062646 77 165 0.0 0.0 0.00 0.01 0.00 100 1015.1
20260831062144 77 165 0.0 0.0 0.00 0.01 0.00 100 1015.2
20260831061644 77 165 0.0 0.0 0.00 0.01 0.00 100 1015.2
20260831061144 77 165 0.0 0.0 0.00 0.01 0.00 100 1015.3
20260831060643 77 165 0.0 0.0 0.00 0.01 0.00 100 1015.4
20260831060143 77 165 0.0 0.0 0.00 0.01 0.00 100 1015.2
20260831055644 77 163 0.0 0.0 0.00 0.01 0.00 100 1015.1
20260831055225 77 151 0.0 3.0 0.00 0.01 0.00 100 1015.1
20260831055142 77 154 0.0 0.0 0.00 0.01 0.00 100 1015.2
20260831054914 77 170 0.0 3.0 0.00 0.02 0.00 100 1015.1
20260831053641 77 177 0.0 0.0 0.00 0.02 0.00 100 1015.2
20260831053142 77 172 0.0 0.0 0.00 0.02 0.00 100 1015.2
20260831052639 77 172 0.0 0.0 0.00 0.02 0.00 100 1015.2
20260831052623 77 172 0.0 0.0 0.00 0.02 0.00 100 1015.2
20260831051638 77 172 0.0 0.0 0.00 0.02 0.00 100 1015.4
20260831051138 77 175 0.0 0.0 0.00 0.02 0.00 100 1015.5
20260831050902 77 175 0.0 0.0 0.00 0.02 0.00 100 1015.6
20260831050135 77 175 0.0 0.0 0.00 0.02 0.00 100 1015.6
20260831045635 77 175 0.0 0.0 0.00 0.02 0.02 100 1015.7
20260831045622 77 175 0.0 0.0 0.00 0.02 0.02 100 1015.6
20260831044623 77 175 0.0 0.0 0.00 0.02 0.02 100 1015.6
20260831044117 77 175 0.0 0.0 0.00 0.02 0.02 100 1015.5
20260831043611 77 175 0.0 0.0 0.00 0.02 0.02 100 1015.5
20260831043105 77 175 0.0 0.0 0.00 0.02 0.02 100 1015.5
20260831042827 77 175 0.0 0.0 0.00 0.02 0.02 100 1015.6
20260831042312 77 175 0.0 0.0 0.00 0.02 0.02 100 1015.6
20260831041547 77 175 0.0 0.0 0.00 0.02 0.02 100 1015.7
20260831041041 77 175 0.0 0.0 0.00 0.02 0.02 100 1015.7
20260831040536 77 175 0.0 0.0 0.00 0.02 0.02 100 1015.8
20260831040255 77 175 0.0 0.0 0.00 0.02 0.02 100 1015.7
20260831035748 77 175 0.0 0.0 0.00 0.02 0.02 100 1015.5
20260831035017 77 175 0.0 0.0 0.00 0.02 0.02 100 1015.6
20260831034511 77 175 0.0 0.0 0.00 0.03 0.02 100 1015.5
20260831034005 77 167 0.0 0.0 0.00 0.03 0.02 100 1015.7
20260831033459 77 167 0.0 0.0 0.00 0.03 0.02 100 1015.9
20260831032953 77 167 0.0 0.0 0.00 0.03 0.02 100 1015.7
20260831032447 77 167 0.0 0.0 0.00 0.03 0.02 100 1015.8
20260831031942 77 167 0.0 0.0 0.00 0.03 0.02 100 1015.8
20260831031435 77 167 0.0 0.0 0.00 0.03 0.02 100 1015.8
20260831030929 77 167 0.0 0.0 0.00 0.03 0.02 100 1015.7
20260831030423 77 167 0.0 0.0 0.00 0.03 0.02 100 1015.8
20260831025917 77 167 0.0 0.0 0.00 0.03 0.02 100 1015.7
20260831025411 77 167 0.0 0.0 0.00 0.04 0.02 100 1015.7
20260831025350 77 167 0.0 0.0 0.00 0.04 0.02 100 1015.6
20260831024357 77 167 0.0 0.0 0.00 0.04 0.02 100 1015.6
20260831023849 77 130 0.0 0.0 0.00 0.04 0.02 100 1015.7
20260831023822 77 107 0.0 0.0 0.00 0.04 0.02 100 1015.7
20260831022837 77 107 0.0 0.0 0.00 0.05 0.02 100 1015.7
20260831022331 77 107 0.0 3.0 0.00 0.05 0.02 100 1015.6
20260831022050 78 107 0.0 3.0 0.00 0.05 0.02 100 1015.7
20260831021319 78 107 0.0 1.0 0.00 0.06 0.02 100 1015.5
20260831021043 78 107 0.0 1.0 0.00 0.06 0.02 100 1015.4
20260831020307 78 97 0.0 1.0 0.00 0.06 0.02 100 1015.4
20260831020022 78 96 0.0 1.0 0.00 0.06 0.02 100 1015.2
20260831015255 79 97 0.0 1.0 0.00 0.07 0.02 100 1015.0
20260831015240 78 112 0.0 1.0 0.00 0.07 0.02 99 1015.0
20260831014243 79 146 0.0 0.0 0.00 0.07 0.02 98 1014.9
20260831014005 80 98 0.0 0.0 0.00 0.08 0.02 98 1014.9
20260831013433 81 216 0.0 3.0 0.00 0.09 0.02 91 1014.4
20260831013427 81 164 0.0 3.0 0.00 0.09 0.02 91 1014.6
20260831013356 80 93 0.0 0.0 0.00 0.08 0.02 96 1015.0
20260831013239 80 181 0.0 1.0 0.00 0.08 0.02 92 1014.9
20260831013124 80 169 0.0 1.0 0.00 0.09 0.02 92 1014.8
20260831013010 81 123 0.0 1.0 0.00 0.09 0.02 92 1014.8
20260831011256 81 164 0.0 3.0 0.00 0.09 0.02 91 1014.6
20260831010155 81 138 0.0 4.0 0.00 0.09 0.02 90 1014.5
20260831005648 82 135 1.0 4.0 0.00 0.09 0.02 89 1014.4
20260831005143 82 188 0.0 4.0 0.00 0.09 0.02 88 1014.4
20260831004904 83 166 0.0 3.0 0.00 0.09 0.02 87 1014.4
20260831004131 83 145 0.0 3.0 0.00 0.09 0.02 86 1014.4
20260831003625 84 149 0.0 1.0 0.00 0.09 0.02 85 1014.3
20260831003120 84 151 0.0 4.0 0.00 0.09 0.02 85 1014.3
20260831002613 84 177 0.0 4.0 0.00 0.09 0.02 85 1014.3
20260831002107 84 194 1.0 8.0 0.00 0.09 0.02 85 1014.1
20260831001830 85 286 3.0 8.0 0.00 0.09 0.02 85 1014.0
20260831001107 85 312 3.0 6.0 0.00 0.09 0.02 85 1014.0
20260831000610 85 321 3.0 5.0 0.00 0.09 0.02 85 1014.1
20260831000107 85 311 1.0 5.0 0.00 0.09 0.02 85 1014.2
20260830235607 85 225 1.0 5.0 0.00 0.09 0.02 84 1014.2
20260830235105 85 280 1.0 5.0 0.00 0.09 0.02 84 1014.2
20260830234603 85 167 1.0 6.0 0.00 0.09 0.02 84 1014.2
20260830234103 85 191 1.0 6.0 0.00 0.09 0.02 84 1014.0
20260830233602 85 118 1.0 5.0 0.00 0.09 0.02 84 1014.1
20260830233104 86 188 1.0 5.0 0.00 0.09 0.02 84 1014.0
20260830232600 85 164 1.0 5.0 0.00 0.09 0.02 84 1014.1
20260830232101 85 194 1.0 4.0 0.00 0.09 0.02 84 1014.2
20260830231601 86 158 1.0 6.0 0.00 0.09 0.02 84 1014.0
20260830231101 86 170 1.0 6.0 0.00 0.09 0.02 84 1014.2
20260830230602 86 168 1.0 5.0 0.00 0.09 0.02 84 1014.1
20260830230104 86 129 1.0 5.0 0.00 0.09 0.02 84 1014.2
20260830225600 86 179 1.0 6.0 0.00 0.09 0.02 84 1014.2
20260830225100 86 293 1.0 6.0 0.00 0.09 0.02 84 1014.2
20260830224558 86 182 0.0 4.0 0.00 0.09 0.02 84 1014.2
20260830224059 86 239 0.0 4.0 0.00 0.09 0.02 84 1014.2
20260830223557 85 152 0.0 4.0 0.00 0.09 0.02 84 1014.3
20260830223328 85 151 1.0 4.0 0.00 0.09 0.02 85 1014.3
20260830222600 85 232 1.0 4.0 0.00 0.09 0.02 84 1014.4
20260830222318 86 172 1.0 4.0 0.00 0.09 0.02 83 1014.4
20260830221559 86 175 1.0 10.0 0.00 0.09 0.02 83 1014.3
20260830221055 86 303 1.0 10.0 0.00 0.09 0.02 84 1014.5
20260830220555 86 16 1.0 5.0 0.00 0.09 0.02 84 1014.3
20260830220053 85 255 1.0 5.0 0.00 0.09 0.02 84 1014.1
20260830215553 85 221 3.0 8.0 0.00 0.09 0.02 84 1014.2
20260830215055 85 187 3.0 8.0 0.00 0.09 0.02 85 1014.2
20260830214553 85 217 3.0 5.0 0.00 0.09 0.02 84 1014.2
20260830214317 84 249 3.0 5.0 0.00 0.09 0.02 84 1014.2
20260830213555 84 152 3.0 8.0 0.00 0.09 0.02 87 1014.4
20260830213322 84 280 1.0 8.0 0.00 0.09 0.02 86 1014.3
20260830212548 83 135 1.0 4.0 0.00 0.09 0.02 87 1014.4
20260830212042 83 178 1.0 4.0 0.00 0.09 0.02 88 1014.6
20260830211536 83 187 1.0 4.0 0.00 0.09 0.02 88 1014.8
20260830211029 82 141 1.0 4.0 0.00 0.09 0.02 90 1014.9
20260830210525 82 156 3.0 6.0 0.00 0.09 0.02 91 1014.8
20260830210025 82 198 3.0 6.0 0.00 0.09 0.02 90 1014.8
20260830205525 82 138 4.0 9.0 0.01 0.09 0.02 88 1014.8
20260830205022 82 310 4.0 11.0 0.01 0.09 0.02 87 1014.8
20260830204522 83 310 4.0 11.0 0.01 0.09 0.02 85 1014.7
20260830204021 84 303 4.0 9.0 0.01 0.09 0.02 83 1014.7
20260830203521 85 319 4.0 10.0 0.01 0.09 0.02 83 1014.7
20260830203023 87 254 4.0 10.0 0.01 0.09 0.02 81 1014.9
20260830202519 88 216 5.0 13.0 0.01 0.09 0.02 77 1014.8
20260830202020 91 274 5.0 14.0 0.01 0.09 0.02 72 1014.8
20260830201739 93 297 4.0 14.0 0.01 0.09 0.02 69 1014.6
20260830201020 92 254 4.0 10.0 0.01 0.09 0.02 67 1014.5
20260830200518 93 313 3.0 8.0 0.01 0.09 0.02 67 1014.7
20260830200018 92 240 4.0 8.0 0.01 0.09 0.02 69 1014.8
20260830195734 92 148 3.0 8.0 0.00 0.08 0.01 71 1014.7
20260830195013 92 322 3.0 8.0 0.00 0.08 0.01 71 1014.9
20260830194513 91 180 1.0 8.0 0.00 0.08 0.01 71 1015.0
20260830194228 91 175 1.0 8.0 0.00 0.08 0.01 72 1015.1
20260830193507 92 147 1.0 6.0 0.00 0.08 0.01 71 1015.3
20260830193008 92 175 3.0 6.0 0.00 0.09 0.01 70 1015.4
20260830192722 93 254 1.0 6.0 0.00 0.09 0.01 68 1015.4
20260830192214 93 168 1.0 8.0 0.00 0.10 0.01 68 1015.5
20260830191938 92 100 3.0 8.0 0.00 0.10 0.01 70 1015.6
20260830190944 91 355 4.0 6.0 0.00 0.11 0.01 72 1015.7
20260830190658 90 306 5.0 10.0 0.00 0.12 0.01 73 1015.6
20260830185932 90 308 5.0 10.0 0.00 0.13 0.01 73 1015.7
20260830185426 90 315 6.0 14.0 0.00 0.14 0.01 72 1015.6
20260830184919 92 306 5.0 14.0 0.00 0.14 0.01 71 1015.6
20260830184414 93 312 1.0 9.0 0.00 0.15 0.01 68 1015.6
20260830183908 93 176 1.0 5.0 0.00 0.16 0.01 69 1015.6
20260830183402 93 278 3.0 8.0 0.00 0.17 0.01 66 1015.8
20260830182856 93 310 3.0 8.0 0.00 0.17 0.01 66 1015.7
20260830182350 92 145 4.0 9.0 0.00 0.18 0.01 69 1015.7
20260830182107 92 232 4.0 9.0 0.00 0.19 0.01 69 1015.8
20260830181338 92 319 4.0 9.0 0.00 0.21 0.01 71 1015.7
20260830180832 92 279 1.0 9.0 0.00 0.22 0.01 68 1015.9
20260830180326 92 228 1.0 5.0 0.00 0.23 0.01 67 1015.9
20260830175820 92 153 1.0 5.0 0.00 0.24 0.01 68 1016.0
20260830175314 93 200 1.0 4.0 0.00 0.25 0.01 68 1016.2
20260830175042 92 194 0.0 4.0 0.00 0.26 0.01 68 1016.3
20260830174303 92 156 0.0 3.0 0.00 0.27 0.01 68 1016.3
20260830173756 92 150 0.0 4.0 0.00 0.28 0.01 68 1016.4
20260830173250 92 154 1.0 5.0 0.00 0.29 0.01 68 1016.5
20260830172744 92 313 1.0 5.0 0.00 0.30 0.01 68 1016.6
20260830172238 92 146 1.0 5.0 0.00 0.30 0.01 68 1016.7
20260830171732 91 79 1.0 5.0 0.00 0.31 0.01 68 1016.9
20260830171226 91 296 1.0 6.0 0.00 0.32 0.01 69 1017.0
20260830170721 91 106 1.0 6.0 0.00 0.33 0.01 70 1017.0
20260830170214 92 99 1.0 8.0 0.00 0.34 0.01 69 1017.0
20260830165708 92 196 1.0 8.0 0.00 0.35 0.01 68 1017.1
20260830165202 93 249 1.0 5.0 0.00 0.36 0.01 69 1017.0
20260830164656 92 131 1.0 5.0 0.00 0.36 0.01 67 1017.0
20260830164150 92 259 1.0 5.0 0.00 0.36 0.01 66 1017.1
20260830163644 92 225 1.0 4.0 0.00 0.36 0.01 68 1017.1
20260830163139 92 170 1.0 8.0 0.00 0.36 0.01 68 1017.1
20260830162632 92 179 3.0 8.0 0.00 0.36 0.01 70 1017.1
20260830162126 93 298 3.0 5.0 0.00 0.36 0.01 68 1017.0
20260830161838 93 128 1.0 5.0 0.00 0.36 0.01 70 1017.1
20260830161114 93 121 1.0 5.0 0.00 0.36 0.01 68 1016.9
20260830160608 92 142 1.0 5.0 0.00 0.36 0.01 71 1017.0
20260830155556 91 146 3.0 6.0 0.00 0.36 0.01 76 1017.0
20260830155050 90 156 3.0 9.0 0.00 0.36 0.01 74 1017.0
20260830154544 89 173 4.0 9.0 0.00 0.36 0.01 75 1017.1
20260830154306 89 277 3.0 8.0 0.00 0.36 0.01 76 1017.1
20260830153532 91 322 1.0 5.0 0.00 0.36 0.01 75 1017.0
20260830153027 91 284 0.0 6.0 0.00 0.36 0.01 73 1016.9
20260830152527 91 180 1.0 6.0 0.00 0.36 0.01 76 1016.9
20260830152023 91 137 1.0 4.0 0.00 0.36 0.01 76 1016.9
20260830151523 90 145 1.0 4.0 0.00 0.36 0.01 75 1016.7
20260830151028 90 120 1.0 4.0 0.00 0.36 0.01 76 1016.6
20260830150738 89 129 1.0 6.0 0.00 0.36 0.01 79 1016.6
20260830150021 89 161 1.0 6.0 0.00 0.36 0.01 78 1016.6
20260830145519 89 211 1.0 5.0 0.00 0.36 0.01 80 1016.6
20260830145238 89 175 1.0 6.0 0.00 0.36 0.01 79 1016.7
20260830144519 89 299 1.0 6.0 0.00 0.36 0.01 79 1016.7
20260830144019 89 135 1.0 4.0 0.00 0.36 0.01 81 1016.9
20260830143516 89 182 1.0 4.0 0.00 0.36 0.01 80 1017.0
20260830143017 89 123 0.0 3.0 0.00 0.36 0.01 81 1017.0
20260830142517 89 164 0.0 3.0 0.00 0.36 0.01 81 1017.0
20260830142020 89 225 1.0 5.0 0.00 0.36 0.01 82 1017.0
20260830141518 88 148 0.0 5.0 0.00 0.36 0.01 83 1016.8
20260830141017 88 151 0.0 3.0 0.00 0.36 0.01 83 1016.9
20260830140518 88 136 0.0 3.0 0.00 0.36 0.01 84 1016.9
20260830140240 87 158 0.0 3.0 0.00 0.36 0.01 84 1016.9